"read_dt","SO2 (ppb)","flags","PMT voltage (V)","lamp voltage (V)","lamp intensity (Hz)","internal temp (C)","react chamber temp (C)","sample flow (l/min)","pres (mmHg)","SO2 bkg (ppb)","SO2 coefficient"
2014-02-04 02:09:00,1105E-3,5C000405,-0726,0950,11080,999.9,999.9,0.172,769.9,01.15,0.508
2014-02-04 02:10:00,1332E-3,5C000405,-0726,0950,11051,999.9,999.9,0.172,769.8,01.15,0.508
2014-02-04 02:11:00,1277E-3,5C000405,-0726,0949,10896,999.9,999.9,0.171,769.7,01.15,0.508
2014-02-04 02:12:00,1370E-3,5C000405,-0726,0949,11144,999.9,999.9,0.204,767.5,01.15,0.508
2014-02-04 02:13:00,1209E-3,5C000005,-0726,0950,11082,999.9,999.9,0.451,749.5,01.17,0.508
2014-02-04 02:14:00,1155E-3,5C000005,-0726,0950,11018,999.9,999.9,0.451,749.4,01.17,0.508
2014-02-04 02:15:00,1166E-3,5C000005,-0726,0950,10947,999.9,999.9,0.451,749.4,01.17,0.508
2014-02-04 02:16:00,1192E-3,5C000005,-0726,0949,10927,999.9,999.9,0.450,749.4,01.17,0.508
2014-02-04 02:17:00,1236E-3,5C000005,-0726,0950,10988,999.9,999.9,0.445,748.1,01.17,0.508
2014-02-04 02:18:00,1232E-3,5C000005,-0726,0950,10929,999.9,999.9,0.441,736.1,01.18,0.508
2014-02-04 02:19:00,1139E-3,5C000005,-0726,0950,11121,999.9,000.0,0.441,737.2,01.18,0.508
2014-02-04 02:20:00,1208E-3,5C000005,-0726,0951,10933,999.9,000.9,0.444,740.6,01.18,0.508
2014-02-04 02:21:00,1273E-3,5C000005,-0726,0952,11090,999.9,001.8,0.445,744.6,01.17,0.508
2014-02-04 02:22:00,1080E-3,5C000005,-0726,0952,11065,999.9,002.6,0.446,745.6,01.17,0.508
2014-02-04 02:23:00,1150E-3,5C000005,-0726,0952,10914,999.9,003.4,0.446,745.6,01.17,0.508
2014-02-04 02:24:00,1188E-3,5C000005,-0726,0953,10849,999.9,004.3,0.447,747.5,01.17,0.508
2014-02-04 02:25:00,1091E-3,5C000005,-0726,0952,11006,999.9,005.0,0.446,747.7,01.17,0.508
2014-02-04 02:26:00,1186E-3,5C000005,-0726,0952,11176,999.9,005.8,0.365,711.8,01.21,0.508
2014-02-04 02:27:00,1439E-3,5C000405,-0726,0952,11083,999.9,006.5,0.200,497.0,01.52,0.508
2014-02-04 02:28:00,1456E-3,5C000405,-0726,0952,10966,999.9,007.2,0.193,492.7,01.53,0.508
2014-02-04 02:29:00,1874E-3,5C000405,-0726,0953,10996,999.9,007.9,0.200,497.4,01.52,0.508
2014-02-04 02:30:00,1467E-3,5C000405,-0726,0953,11106,999.9,008.6,0.190,490.1,01.54,0.508
2014-02-04 02:31:00,1726E-3,5C000405,-0726,0953,11000,999.9,009.2,0.188,489.5,01.54,0.508
2014-02-04 02:32:00,1599E-3,5C000405,-0726,0954,11015,999.9,009.8,0.187,489.1,01.54,0.508
2014-02-04 02:33:00,1618E-3,5C000405,-0726,0953,11073,999.9,010.4,0.187,488.7,01.54,0.508
2014-02-04 02:34:00,1561E-3,5C000405,-0726,0954,11021,999.9,011.0,0.185,488.3,01.54,0.508
2014-02-04 02:35:00,1635E-3,5C000405,-0726,0955,10889,999.9,011.6,0.184,487.9,01.54,0.508
2014-02-04 02:36:00,1732E-3,5C000405,-0726,0954,10946,999.9,012.2,0.184,487.7,01.54,0.508
2014-02-04 02:37:00,1989E-3,5C000405,-0726,0955,11144,999.9,012.8,0.182,487.2,01.54,0.508
2014-02-04 02:38:00,1600E-3,5C000405,-0726,0953,11128,999.9,013.3,0.181,486.9,01.55,0.508
2014-02-04 02:39:00,1686E-3,5C000405,-0726,0955,10999,999.9,013.9,0.180,486.5,01.55,0.508
2014-02-04 02:40:00,1724E-3,5C000405,-0726,0955,11141,999.9,014.4,0.181,486.3,01.55,0.508
2014-02-04 02:41:00,1592E-3,5C000405,-0726,0955,11013,999.9,014.9,0.178,485.9,01.55,0.508
2014-02-04 02:42:00,1593E-3,5C000405,-0726,0954,10924,999.9,015.4,0.177,485.6,01.55,0.508
2014-02-04 02:43:00,1548E-3,5C000405,-0726,0955,11070,999.9,015.9,0.176,485.4,01.55,0.508
2014-02-04 02:44:00,1609E-3,5C000405,-0726,0956,11068,999.9,016.4,0.177,485.1,01.55,0.508
2014-02-04 02:45:00,1773E-3,5C000405,-0726,0955,11124,999.9,016.9,0.176,484.8,01.55,0.508
2014-02-04 02:46:00,1661E-3,5C000405,-0726,0955,11232,999.9,017.3,0.175,484.6,01.55,0.508
2014-02-04 02:47:00,1524E-3,5C000405,-0726,0956,10972,999.9,017.8,0.173,484.4,01.55,0.508
2014-02-04 02:48:00,1570E-3,5C000405,-0726,0955,11012,999.9,018.2,0.173,484.2,01.55,0.508
2014-02-04 02:49:00,1577E-3,5C000405,-0726,0956,11090,999.9,018.7,0.172,484.0,01.55,0.508
2014-02-04 02:50:00,1501E-3,5C000405,-0726,0956,10812,999.9,019.1,0.171,483.8,01.55,0.508
2014-02-04 02:51:00,1612E-3,5C000405,-0726,0956,10973,999.9,019.6,0.170,483.6,01.55,0.508
2014-02-04 02:52:00,1465E-3,5C000405,-0726,0956,11066,999.9,020.0,0.171,483.4,01.55,0.508
2014-02-04 02:53:00,1607E-3,5C000405,-0726,0954,10850,999.9,020.4,0.170,483.2,01.55,0.508
2014-02-04 02:54:00,1590E-3,5C000405,-0726,0955,10953,999.9,020.8,0.169,483.1,01.55,0.508
2014-02-04 02:55:00,1626E-3,5C000405,-0726,0956,11032,999.9,021.2,0.168,483.0,01.55,0.508
2014-02-04 02:56:00,1440E-3,5C000405,-0726,0956,10965,999.9,021.6,0.169,482.8,01.55,0.508
2014-02-04 02:57:00,1685E-3,5C000405,-0726,0956,10865,999.9,022.0,0.168,482.7,01.55,0.508
2014-02-04 02:58:00,1363E-3,5C000405,-0726,0956,10934,999.9,022.4,0.167,482.6,01.55,0.508
2014-02-04 02:59:00,1403E-3,5C000405,-0726,0957,11047,999.9,022.7,0.167,482.5,01.55,0.508
2014-02-04 03:00:00,1364E-3,5C000405,-0726,0956,10878,999.9,023.1,0.167,482.3,01.55,0.508
2014-02-04 03:01:00,1414E-3,5C000405,-0725,0956,10941,999.9,023.5,0.166,482.2,01.56,0.508
2014-02-04 03:02:00,1580E-3,5C000405,-0725,0956,10856,999.9,023.9,0.164,482.1,01.56,0.508
2014-02-04 03:03:00,1404E-3,5C000405,-0725,0957,11185,999.9,024.2,0.163,482.1,01.56,0.508
2014-02-04 03:04:00,1420E-3,5C000405,-0725,0956,10844,999.9,024.6,0.164,482.0,01.56,0.508
2014-02-04 03:05:00,1498E-3,5C000405,-0725,0956,10896,999.9,024.9,0.164,481.9,01.56,0.508
2014-02-04 03:06:00,1443E-3,5C000405,-0725,0957,10994,999.9,025.3,0.162,481.8,01.56,0.508
2014-02-04 03:07:00,1340E-3,5C000405,-0725,0956,11055,999.9,025.6,0.162,481.7,01.56,0.508
2014-02-04 03:08:00,1457E-3,5C000405,-0725,0956,10928,999.9,026.0,0.161,481.7,01.56,0.508
2014-02-04 03:09:00,1285E-3,5C000405,-0725,0957,11032,999.9,026.3,0.161,481.6,01.56,0.508
2014-02-04 03:10:00,1333E-3,5C000405,-0725,0957,10954,999.9,026.6,0.160,481.5,01.56,0.508
2014-02-04 03:11:00,1278E-3,5C000405,-0725,0957,10890,999.9,026.9,0.161,481.5,01.56,0.508
2014-02-04 03:12:00,1301E-3,5C000405,-0725,0957,11078,000.1,027.2,0.159,481.5,01.56,0.508
2014-02-04 03:13:00,1627E-3,5C000405,-0725,0957,10898,000.3,027.6,0.160,481.5,01.56,0.508
2014-02-04 03:14:00,1323E-3,5C000405,-0725,0957,10989,000.5,027.9,0.158,481.4,01.56,0.508
2014-02-04 03:15:00,1257E-3,5C000405,-0725,0958,11148,000.6,028.2,0.158,481.4,01.56,0.508
2014-02-04 03:16:00,1350E-3,5C000405,-0725,0957,10994,000.8,028.5,0.158,481.3,01.56,0.508
2014-02-04 03:17:00,1155E-3,5C000405,-0725,0956,10982,000.9,028.8,0.156,481.3,01.56,0.508
2014-02-04 03:18:00,1367E-3,5C000405,-0725,0957,11025,001.1,029.1,0.156,481.2,01.56,0.508
2014-02-04 03:19:00,1296E-3,5C000405,-0725,0957,11057,001.3,029.4,0.157,481.1,01.56,0.508
2014-02-04 03:20:00,1310E-3,5C000405,-0725,0958,10872,001.4,029.7,0.155,481.1,01.56,0.508
2014-02-04 03:21:00,1275E-3,5C000405,-0725,0957,11035,001.6,029.9,0.156,481.0,01.56,0.508
2014-02-04 03:22:00,1289E-3,5C000405,-0725,0957,10946,001.8,030.2,0.155,481.7,01.56,0.508
2014-02-04 03:23:00,1553E-3,5C000405,-0725,0958,10828,001.9,030.5,0.164,488.8,01.54,0.508
2014-02-04 03:24:00,1831E-3,5C000405,-0725,0958,10986,002.1,030.8,0.157,483.1,01.55,0.508
2014-02-04 03:25:00,2266E-3,5C000405,-0725,0960,11108,002.2,031.1,0.209,515.5,01.49,0.508
2014-02-04 03:26:00,2636E-3,5C000405,-0725,0971,10587,002.4,031.3,0.209,542.3,01.44,0.508
2014-02-04 03:27:00,3166E-3,5C000405,-0725,0972,10851,002.5,031.5,0.229,559.7,01.41,0.508
2014-02-04 03:28:00,2941E-3,5C000005,-0725,0971,10931,002.7,031.8,0.343,631.2,01.30,0.508
2014-02-04 03:29:00,2647E-3,5C000005,-0725,0972,10934,002.8,032.0,0.368,659.2,01.27,0.508
2014-02-04 03:30:00,2579E-3,5C000005,-0725,0972,10885,002.9,032.3,0.380,674.5,01.25,0.508
2014-02-04 03:31:00,2497E-3,5C000005,-0725,0972,10947,003.1,032.5,0.393,689.5,01.23,0.508
2014-02-04 03:32:00,2515E-3,5C000005,-0725,0974,10828,003.2,032.8,0.400,697.6,01.22,0.508
2014-02-04 03:33:00,2612E-3,5C000005,-0725,0973,10866,003.4,033.0,0.368,702.0,01.22,0.508
2014-02-04 03:34:00,2682E-3,5C000005,-0725,0972,10798,003.5,033.2,0.404,698.6,01.22,0.508
2014-02-04 03:35:00,2490E-3,5C000005,-0725,0971,10885,003.6,033.4,0.410,704.7,01.22,0.508
2014-02-04 03:36:00,2361E-3,5C000005,-0725,0972,10874,003.8,033.7,0.416,710.4,01.21,0.508
2014-02-04 03:37:00,2471E-3,5C000005,-0725,0972,10762,003.9,033.9,0.420,712.7,01.21,0.508
2014-02-04 03:38:00,2570E-3,5C000005,-0725,0971,10751,004.0,034.1,0.423,713.5,01.21,0.508
2014-02-04 03:39:00,2489E-3,5C000005,-0725,0972,10874,004.1,034.3,0.429,716.3,01.20,0.508
2014-02-04 03:40:00,2439E-3,5C000005,-0725,0972,10867,004.2,034.6,0.431,714.0,01.21,0.508
2014-02-04 03:41:00,2316E-3,5C000005,-0725,0972,10706,004.4,034.8,0.433,714.1,01.21,0.508
2014-02-04 03:42:00,4267E-3,5C000005,-0725,0960,11056,004.5,035.0,0.401,665.3,01.26,0.508
2014-02-04 03:43:00,4600E-3,5C000005,-0725,0960,11067,004.6,035.2,0.443,719.5,01.20,0.508
2014-02-04 03:44:00,6617E-3,5C000005,-0725,0968,10853,004.7,035.4,0.437,689.2,01.23,0.508
2014-02-04 03:45:00,6997E-3,5C000005,-0725,0967,10975,004.8,035.6,0.447,710.4,01.21,0.508
2014-02-04 03:46:00,6875E-3,5C000005,-0725,0967,10959,004.9,035.8,0.455,720.1,01.20,0.508
2014-02-04 03:47:00,7501E-3,5C000005,-0725,0966,11030,005.0,036.0,0.459,721.5,01.20,0.508
2014-02-04 03:48:00,7738E-3,5C000005,-0725,0967,10896,005.1,036.2,0.463,716.9,01.20,0.508
2014-02-04 03:49:00,8370E-3,5C000005,-0725,0967,10893,005.2,036.4,0.470,722.5,01.20,0.508
2014-02-04 03:50:00,8113E-3,5C000005,-0725,0967,11078,005.3,036.6,0.468,722.9,01.20,0.508
2014-02-04 03:51:00,7931E-3,5C000005,-0725,0966,10858,005.4,036.8,0.479,720.3,01.20,0.508
2014-02-04 03:52:00,6869E-3,5C000015,-0725,1053,9932,005.6,036.9,0.489,724.1,01.20,0.508
2014-02-04 03:53:00,7750E-3,5C000005,-0725,1040,10300,005.6,037.1,0.304,589.1,01.36,0.508
2014-02-04 03:54:00,4847E-3,5C000005,-0725,1024,10416,005.7,037.3,0.501,724.1,01.20,0.508
2014-02-04 03:55:00,4437E-3,5C000005,-0725,1017,10430,005.8,037.5,0.503,723.8,01.20,0.508
2014-02-04 03:56:00,4182E-3,5C000005,-0725,1011,10499,005.9,037.6,0.511,726.0,01.19,0.508
2014-02-04 03:57:00,3921E-3,5C000005,-0725,1007,10493,006.0,037.8,0.517,724.4,01.19,0.508
2014-02-04 03:58:00,3893E-3,5C000005,-0725,1005,10530,006.1,038.0,0.522,715.2,01.20,0.508
2014-02-04 03:59:00,3932E-3,5C000005,-0725,1002,10504,006.2,038.1,0.529,723.9,01.20,0.508
2014-02-04 04:00:00,3810E-3,5C000005,-0725,1000,10608,006.3,038.4,0.538,723.8,01.20,0.508
2014-02-04 04:01:00,3537E-3,5C000005,-0725,0998,10541,006.4,038.5,0.552,726.8,01.19,0.508
2014-02-04 04:02:00,3579E-3,5C000005,-0725,0996,10498,006.5,038.7,0.562,727.7,01.19,0.508
2014-02-04 04:03:00,3693E-3,5C000005,-0725,0996,10578,006.6,038.8,0.565,702.1,01.22,0.508
2014-02-04 04:04:00,3293E-3,5C000005,-0725,0994,10588,006.6,039.0,0.582,727.0,01.19,0.508
2014-02-04 04:05:00,3271E-3,5C000005,-0725,0992,10695,006.7,039.2,0.553,728.9,01.19,0.508
2014-02-04 04:06:00,3209E-3,5C000005,-0725,0993,10584,006.8,039.3,0.598,729.4,01.19,0.508
2014-02-04 04:07:00,3255E-3,5C000005,-0725,0992,10702,006.9,039.4,0.469,730.3,01.19,0.508
2014-02-04 04:08:00,3270E-3,5C000005,-0725,0991,10575,006.9,039.6,0.476,730.2,01.19,0.508
2014-02-04 04:09:00,3837E-3,5C000005,-0725,0991,10496,007.0,039.7,0.568,731.3,01.19,0.508
2014-02-04 04:10:00,3607E-3,5C000005,-0725,0990,10562,007.1,039.9,0.462,733.7,01.19,0.508
2014-02-04 04:11:00,3717E-3,5C000005,-0725,0989,10573,007.1,040.0,0.419,733.6,01.19,0.508
2014-02-04 04:12:00,3643E-3,5C000005,-0725,0990,10766,007.2,040.1,0.430,733.4,01.19,0.508
2014-02-04 04:13:00,3843E-3,5C000005,-0725,0989,10543,007.3,040.3,0.436,733.7,01.19,0.508
2014-02-04 04:14:00,3579E-3,5C000005,-0725,0988,10753,007.3,040.4,0.449,733.0,01.19,0.508
2014-02-04 04:15:00,3331E-3,5C000005,-0725,0988,10732,007.4,040.5,0.391,736.9,01.18,0.508
2014-02-04 04:16:00,3277E-3,5C000005,-0725,0987,10639,007.4,040.7,0.449,738.7,01.18,0.508
2014-02-04 04:17:00,3335E-3,5C000005,-0725,0987,10778,007.5,040.8,0.445,738.8,01.18,0.508
2014-02-04 04:18:00,3105E-3,5C000005,-0725,0986,10671,007.5,040.9,0.450,738.6,01.18,0.508
2014-02-04 04:19:00,3122E-3,5C000005,-0725,0986,10763,007.6,041.0,0.346,738.1,01.18,0.508
2014-02-04 04:20:00,3220E-3,5C000005,-0725,0985,10706,007.6,041.2,0.467,737.7,01.18,0.508
2014-02-04 04:21:00,3274E-3,5C000005,-0725,0984,10717,007.7,041.3,0.383,737.6,01.18,0.508
2014-02-04 04:22:00,3218E-3,5C000005,-0725,0982,10650,007.7,041.4,0.340,737.2,01.18,0.508
2014-02-04 04:23:00,3196E-3,5C000005,-0725,0983,10814,007.8,041.5,0.357,737.1,01.18,0.508
2014-02-04 04:24:00,2973E-3,5C000005,-0725,0981,10721,007.8,041.6,0.358,737.0,01.18,0.508
2014-02-04 04:25:00,3060E-3,5C000005,-0725,0979,10555,007.9,041.8,0.363,736.9,01.18,0.508
2014-02-04 04:26:00,3082E-3,5C000005,-0725,0978,10635,007.9,041.9,0.363,736.6,01.18,0.508
2014-02-04 04:27:00,3110E-3,5C000005,-0725,0977,10849,008.0,042.0,0.459,738.2,01.18,0.508
2014-02-04 04:28:00,3204E-3,5C000005,-0725,0966,10786,008.0,042.1,0.379,733.0,01.19,0.508
2014-02-04 04:29:00,3128E-3,5C000005,-0725,0965,10835,008.1,042.2,0.377,736.8,01.18,0.508
2014-02-04 04:30:00,3199E-3,5C000005,-0725,0965,11026,008.1,042.3,0.377,737.5,01.18,0.508
"read_dt","SO2 (ppb)","flags","PMT voltage (V)","lamp voltage (V)","lamp intensity (Hz)","internal temp (C)","react chamber temp (C)","sample flow (l/min)","pres (mmHg)","SO2 bkg (ppb)","SO2 coefficient"
2014-02-04 23:39:00,7840E-3,5C000005,-0726,0945,10761,999.9,999.9,0.444,732.1,01.19,0.508
2014-02-04 23:40:00,1171E-2,5C000005,-0726,0959,10862,999.9,999.9,0.440,732.7,01.19,0.508
2014-02-04 23:41:00,1203E-2,5C000005,-0726,0964,10953,999.9,000.3,0.438,732.4,01.19,0.508
2014-02-04 23:42:00,1318E-2,5C000005,-0726,0969,10813,999.9,001.5,0.438,732.6,01.19,0.508
2014-02-04 23:43:00,1325E-2,5C000005,-0725,0972,10693,999.9,002.6,0.437,732.6,01.19,0.508
2014-02-04 23:44:00,1303E-2,5C000005,-0725,0973,10868,999.9,003.7,0.437,732.7,01.19,0.508
2014-02-04 23:45:00,1262E-2,5C000005,-0725,0974,10787,999.9,004.8,0.436,732.7,01.19,0.508
2014-02-04 23:46:00,1274E-2,5C000005,-0725,0974,10830,999.9,005.8,0.435,732.7,01.19,0.508
2014-02-04 23:47:00,1240E-2,5C000005,-0725,0975,10692,999.9,006.8,0.437,732.4,01.19,0.508
2014-02-04 23:48:00,1188E-2,5C000005,-0725,0975,10796,999.9,007.8,0.437,732.5,01.19,0.508
2014-02-04 23:49:00,1134E-2,5C000005,-0725,0972,10666,999.9,008.7,0.436,732.5,01.19,0.508
2014-02-04 23:50:00,1128E-2,5C000005,-0725,0967,10790,999.9,009.6,0.436,732.5,01.19,0.508
2014-02-04 23:51:00,1084E-2,5C000005,-0725,0967,10952,999.9,010.5,0.435,732.5,01.19,0.508
2014-02-04 23:52:00,1037E-2,5C000005,-0725,0964,10945,999.9,011.3,0.434,732.6,01.19,0.508
2014-02-04 23:53:00,9544E-3,5C000005,-0725,0960,10915,999.9,012.1,0.434,732.6,01.19,0.508
2014-02-04 23:54:00,9339E-3,5C000005,-0725,0967,10836,999.9,012.9,0.433,732.7,01.19,0.508
2014-02-04 23:55:00,9030E-3,5C000005,-0725,0975,10722,999.9,013.7,0.435,732.7,01.19,0.508
2014-02-04 23:56:00,9233E-3,5C000005,-0725,0977,10707,999.9,014.4,0.435,732.7,01.19,0.508
2014-02-04 23:57:00,8960E-3,5C000005,-0725,0976,10726,000.0,015.1,0.433,732.7,01.19,0.508
2014-02-04 23:58:00,8439E-3,5C000005,-0725,0975,10755,000.2,015.8,0.434,732.7,01.19,0.508
2014-02-04 23:59:00,8490E-3,5C000005,-0725,0974,10832,000.4,016.5,0.435,732.6,01.19,0.508
